#timestamp,LO_Frequency,Hit,StdDev 
1676178015.2,286046998.1,N
1676178035.9,286046999.9,N
1676178055.7,286047000.0,N
1676178075.6,286046998.6,N
1676178095.4,286047002.2,N
1676178115.2,286047002.6,N
1676178135.1,286047000.2,N
1676178136.0,286047000.2,N
1676178155.8,286047000.4,N
1676178175.7,286046999.3,N
1676178195.5,286047000.8,N
1676178215.3,286046997.1,N
1676178235.2,286046999.6,N
1676178255.9,286046995.4,N
1676178275.7,286046993.4,Y
1676178295.6,286046997.4,P
1676178315.4,286046997.0,P
1676178335.3,286046999.1,N
1676178355.1,286046999.8,N
1676178356.0,286046999.8,N
1676178375.8,286046998.9,N
1676178395.7,286046998.5,N
1676178415.5,286046999.3,N
1676178435.3,286046995.3,Y
1676178455.2,286047001.0,P
1676178475.0,286046999.6,N
1676178475.9,286046999.6,N
1676178495.8,286046997.0,Y
1676178515.6,286047000.3,P
1676178535.4,286046998.5,P
1676178555.3,286047000.1,N
1676178575.1,286047002.0,N
1676178595.8,286047001.6,N
1676178615.7,286047000.9,N
1676178635.5,286046997.2,N
1676178655.4,286046995.6,N
1676178675.2,286046993.9,Y
1676178695.0,286046995.2,P
1676178695.9,286046995.2,N
1676178715.8,286046996.6,N
1676178735.6,286046999.4,N
1676178755.4,286046996.5,N
1676178775.3,286046997.6,N
1676178795.1,286046997.6,N
1676178815.9,286046997.1,N
1676178835.7,286047002.8,N
1676178855.5,286047000.6,N
1676178875.4,286047001.2,N
1676178895.2,286046999.6,N
1676178915.0,286046997.3,N
1676178916.0,286046997.3,N
1676178935.8,286046997.4,N
1676178955.6,286046999.3,N
1676178975.5,286046999.1,N
1676178995.3,286046995.3,N
1676179015.1,286046993.9,Y
1676179035.9,286046995.2,P
1676179055.7,286046996.5,N
1676179075.6,286046997.6,N
1676179095.4,286046997.7,N
1676179115.2,286046997.4,N
1676179135.1,286046995.6,Y
1676179136.0,286046995.6,P
1676179155.8,286046996.5,P
1676179175.6,286046996.8,P
1676179195.5,286046998.7,N
1676179215.3,286046996.5,Y
1676179235.2,286047002.2,P
1676179255.9,286047000.1,N
1676179275.7,286047001.0,N
1676179295.6,286047003.8,N
1676179315.4,286047003.9,N
1676179335.2,286047001.7,N
1676179355.1,286047005.6,N
1676179356.0,286047005.6,N
1676179375.8,286047003.5,N
1676179395.7,286047009.2,Y
1676179415.5,286047006.1,P
1676179435.3,286047006.9,P
1676179455.2,286047006.7,P
1676179475.9,286047007.0,Y
1676179495.7,286046999.1,P
1676179515.6,286046998.8,N
1676179535.4,286046997.2,N
1676179555.3,286046996.8,N
1676179575.1,286046996.1,N
1676179576.0,286046996.1,N
1676179595.8,286046995.2,N
1676179615.7,286046996.8,N
1676179635.5,286046998.7,N
1676179655.4,286047001.1,N
1676179675.2,286046999.3,N
1676179695.0,286046999.5,N
1676179695.9,286046999.5,N
1676179715.8,286046995.0,N
1676179735.6,286046995.4,N
1676179755.4,286046994.9,N
1676179775.3,286047001.2,N
1676179795.1,286047000.0,N
1676179815.9,286046996.7,N
1676179835.7,286046994.9,N
1676179855.5,286046997.1,N
1676179875.4,286046996.2,N
1676179895.2,286046994.2,N
1676179915.0,286046993.7,N
1676179915.9,286046993.7,N
1676179935.8,286046994.5,N
1676179955.6,286046997.1,N
1676179975.5,286046998.0,N
1676179995.3,286046996.1,N
1676180015.1,286046997.6,N
1676180035.9,286046993.4,Y
1676180055.7,286046997.4,P
1676180075.5,286046997.5,P
1676180095.4,286046995.5,P
1676180115.2,286046999.2,N
1676180135.1,286046999.5,N
1676180136.0,286046999.5,N
1676180155.8,286046998.9,N
1676180175.6,286047001.2,N
1676180195.5,286047000.6,N
1676180215.3,286046999.8,N
1676180235.2,286046999.9,N
1676180255.9,286047001.0,N
1676180275.7,286047002.7,N
1676180295.6,286046999.9,N
1676180315.4,286047006.0,Y
1676180335.3,286047003.1,P
1676180355.1,286047001.7,N
1676180356.0,286047001.7,N
1676180375.8,286047002.3,N
1676180395.7,286046999.7,N
1676180415.5,286047002.3,N
1676180435.3,286047003.8,N
1676180455.2,286047001.3,N
1676180475.0,286047001.8,N
1676180475.9,286047001.8,N
1676180495.8,286046999.8,N
1676180515.6,286047000.2,N
1676180535.4,286047001.2,N
1676180555.3,286046999.8,N
1676180575.1,286047005.7,Y
1676180595.8,286047001.8,P
1676180615.7,286047005.6,P
1676180635.5,286047004.2,N
1676180655.4,286047002.8,N
1676180675.2,286047001.4,N
1676180695.0,286047001.7,N
1676180695.9,286047001.7,N
1676180715.8,286047002.1,N
1676180735.6,286047003.5,N
1676180755.4,286046999.8,N
1676180775.3,286047000.8,N
1676180795.1,286046999.3,N
1676180815.9,286046998.2,N
1676180835.7,286047000.9,N
1676180855.5,286047000.5,N
1676180875.4,286047001.0,N
1676180895.2,286046996.8,N
1676180915.0,286046998.9,N
1676180915.9,286046998.9,N
1676180935.8,286046997.5,N
1676180955.6,286046998.3,N
1676180975.5,286046997.1,N
1676180995.3,286046998.1,N
1676181015.1,286047001.9,N
1676181035.9,286047000.8,N
1676181055.7,286046996.9,N
1676181075.5,286046997.4,N
1676181095.4,286046999.3,N
1676181115.2,286046996.9,N
1676181135.1,286046999.6,N
1676181136.0,286046999.6,N
1676181155.8,286046995.6,N
1676181175.6,286046999.0,N
1676181195.5,286047002.0,N
1676181215.3,286047002.7,N
1676181235.1,286047004.0,N
1676181255.9,286047003.1,N
1676181275.7,286047001.9,N
1676181295.6,286046998.5,N
1676181315.4,286046998.5,N
1676181335.2,286046998.2,N
1676181355.1,286046998.0,N
1676181356.0,286046998.0,N
1676181375.8,286046999.5,N
1676181395.6,286047000.8,N
1676181415.5,286046998.1,N
1676181435.3,286046999.6,N
1676181455.2,286047001.0,N
1676181475.9,286047000.6,N
1676181495.7,286046999.2,N
1676181515.6,286046997.3,N
1676181535.4,286046998.0,N
1676181555.2,286046999.5,N
1676181575.1,286046997.8,N
1676181576.0,286046997.8,N
1676181595.8,286046998.8,N
